Location: WWIN Observatory
(34.8953°N, 91.9583°W)
Time: 20:39:13
(UTC-06:00)

Daily predictions for brighter satellites

Satellite Brightness Start Highest point End
(mag) Time Altitude Azimuth Time Altitude Azimuth Time Altitude Azimuth
Delta 2 Rocket 4.0 17:17:57 10° W 17:23:38 82° N 17:28:48 10° E
BREEZE-M DEB (TANK) 2.4 17:21:39 10° NW 17:23:57 76° NE 17:29:19 10° SE
Cosmos 2279 Rocket 4.0 17:18:37 10° S 17:24:48 69° E 17:31:02 10° NNE
Cosmos 2297 Rocket 3.5 17:25:32 10° NNE 17:29:27 19° ENE 17:33:22 10° E
USA 116 3.7 17:28:57 10° NNE 17:31:57 39° E 17:34:52 10° S
COSMO-SKYMED 1 3.5 17:29:36 10° NE 17:33:21 28° E 17:37:05 10° SSE
Cosmos 2150 Rocket 4.5 17:31:27 10° SSW 17:36:52 70° WNW 17:42:20 10° NNE
Meteor 2-4 Rocket 4.1 17:33:32 10° SSE 17:38:35 39° E 17:43:33 10° NNE
SJ-7 4.4 17:34:43 10° SSE 17:38:44 89° WSW 17:42:45 10° NNW
Cosmos 1666 3.1 17:35:43 10° N 17:39:15 39° E 17:42:45 10° SSE
PSLV R/B 3.1 17:36:10 10° WSW 17:39:19 79° NNW 17:42:02 13° ENE
Cosmos 1975 Rocket 3.7 17:35:06 10° SSW 17:39:29 61° W 17:43:56 10° N
ATLAS 2AS CENTAUR R/B 3.2 17:33:27 10° SW 17:41:05 79° WNW 17:49:14 10° NNE
SJ 16-02 2.2 17:40:14 10° SSE 17:44:04 31° E 17:47:56 10° NE
IRAS Rocket 4.5 17:41:08 10° S 17:46:36 76° WSW 17:52:06 10° NNW
Cosmos 1656 4.2 17:43:02 10° S 17:48:09 38° ESE 17:53:14 10° NE
SPOT 3 Rocket 4.3 17:46:02 10° SE 17:50:24 28° ENE 17:54:47 10° N
ATLAS 3B R/B 3.1 17:46:18 10° NNW 17:52:24 37° NE 17:58:21 10° ESE
MTI 4.0 17:49:18 10° NNE 17:52:27 47° E 17:55:35 10° S
CSL-04 Debris 4.4 17:48:34 10° S 17:53:56 73° WSW 17:59:20 10° NNW
Hubble Space Telescope 2.1 17:51:37 10° WSW 17:55:22 33° S 17:59:07 10° ESE
Cosmos 2369 3.9 17:50:18 10° S 17:55:47 53° ESE 18:01:19 10° NNE
USA 215 3.5 17:50:10 10° SE 17:56:42 76° SW 18:03:15 10° NW
Cosmos 158 Rocket 4.4 17:52:40 10° N 17:57:18 35° ENE 18:01:48 10° SE
Cosmos 2278 3.9 17:52:07 10° S 17:57:36 52° ESE 18:03:06 10° NNE
Meteor 1-19 Rocket 4.3 17:54:11 10° S 17:59:48 87° W 18:05:35 10° N
NOSS 3-4 (A) 4.1 17:57:12 10° S 18:02:42 34° ESE 18:06:29 18° ENE
NOSS 3-4 (C) 4.2 17:57:20 10° S 18:02:48 34° ESE 18:06:32 18° ENE
Cosmos 1536 Rocket 3.4 18:03:17 10° S 18:07:38 78° E 18:12:00 10° N
EO 1 Del DPAF 3.1 18:07:55 11° NNE 18:11:37 66° E 18:15:24 10° S
Cosmos 1025 Rocket 3.8 18:09:29 10° SSE 18:13:12 29° E 18:14:01 27° ENE
MOS 1 4.2 18:11:09 10° SSE 18:16:47 67° ENE 18:22:25 10° N
Cosmos 1743 3.7 18:13:39 10° NNW 18:17:23 48° W 18:21:08 10° SSW
Ariane Rocket 4.4 18:13:10 10° S 18:17:55 41° W 18:22:42 10° NNW
FENGYUN 3A 3.7 18:13:19 10° SSE 18:18:31 52° ENE 18:23:44 10° N
Cosmos 389 Rocket 4.3 18:17:14 10° NNW 18:20:22 33° W 18:23:29 10° SSW
SKYMED 2 3.7 18:17:11 10° N 18:21:31 76° WNW 18:25:50 10° SSW
Cosmos 1515 4.0 18:19:17 10° SSE 18:22:51 42° E 18:23:26 39° ENE
Cosmos 1697 Rocket 2.8 18:17:34 10° S 18:23:01 51° ESE 18:26:11 24° NE
Cosmos 1269 Rocket 4.4 18:18:52 10° N 18:23:49 38° ENE 18:28:43 10° SE
BREEZE-M DEB (TANK) 3.2 18:21:58 10° NW 18:25:19 77° NE 18:37:34 10° SE
METEOR-M 4.3 18:21:43 10° S 18:27:02 76° WSW 18:32:24 10° NNW
NOAA 12 4.0 18:22:22 10° SSE 18:27:34 63° ENE 18:32:45 10° N
Cosmos 1125 Rocket 3.6 18:23:19 10° SSW 18:28:37 77° WNW 18:33:37 12° NNE
Cosmos 2266 Rocket 3.9 18:23:37 10° N 18:29:42 84° E 18:35:53 10° S
Cosmos 2082 3.6 18:27:00 10° NNW 18:32:34 59° ENE 18:38:05 10° SE
CENTAUR R/B 4.3 18:29:47 10° N 18:34:48 19° NE 18:34:48 19° NE
ALOS 2.1 18:33:30 10° SSE 18:38:09 87° E 18:42:51 10° NNW
Atlas Centaur 2 2.4 18:35:41 10° W 18:40:18 41° S 18:41:46 30° SE
Cosmos 1048 Rocket 3.9 18:36:25 10° NNW 18:41:49 72° ENE 18:47:09 10° SSE
Meteor 1-23 Rocket 4.3 18:36:08 10° S 18:41:55 81° W 18:47:40 10° N
Cosmos 2084 4.0 18:38:27 10° S 18:41:58 40° SE 18:41:58 40° SE
Cosmos 724 4.3 18:36:54 10° NNW 18:42:37 55° ENE 18:45:21 30° ESE
DELTA 2 R/B (1) 3.9 18:40:34 10° WNW 18:46:00 52° N 18:47:20 43° NE
Cosmos 2227 Rocket 2.2 18:41:03 10° NNW 18:46:43 81° WSW 18:52:21 10° SSE
ERS-2 3.3 18:48:55 10° S 18:52:24 43° W 18:55:55 10° NNW
USA 238 DEB 3.8 18:45:38 10° NNW 18:52:48 86° WSW 19:00:00 10° SSE
USA 238 3.8 18:45:44 10° NNW 18:52:54 87° WSW 19:00:07 10° SSE
ISS -1.7 18:51:24 10° NW 18:52:36 20° NW 18:52:36 20° NW
Cosmos 1244 Rocket 4.3 18:54:16 10° N 19:00:22 65° E 19:06:29 10° SSE
Cosmos 1980 Rocket 2.1 18:56:59 10° S 19:02:33 65° ESE 19:02:45 64° E
Delta 2 Rocket 3.8 19:01:04 10° W 19:06:26 74° SSW 19:06:37 73° S
GOES 2 Rocket 4.2 19:06:42 10° WSW 19:11:14 42° S 19:11:43 41° SSE
Cosmos 2297 Rocket 2.8 19:08:19 10° NNW 19:13:50 55° WSW 19:19:19 10° S
Okean 2 4.4 19:11:36 10° SSW 19:15:31 44° W 19:15:41 43° WNW
Cosmos 1553 Rocket 3.9 19:11:34 10° S 19:17:51 73° E 19:17:51 73° E
Cosmos 1417 Rocket 4.3 19:14:26 10° S 19:20:34 88° E 19:21:26 68° N
SJ 16-02 3.8 19:19:34 10° WSW 19:22:41 19° WNW 19:25:04 13° NNW
NOSS 3-2 (A) 3.9 19:16:00 10° NNW 19:23:46 87° ENE 19:27:40 36° SSE
NOSS 3-2 (C) 3.9 19:21:43 10° NNW 19:29:26 74° ENE 19:30:03 71° E
Hubble Space Telescope 3.2 19:32:48 10° WSW 19:34:33 19° SW 19:34:33 19° SW
ATLAS 3B R/B 3.9 19:37:04 10° NW 19:42:57 36° WSW 19:48:45 10° S
